Overview Statistics Trail Chart Weather Telemetry Raw packets
 

This is the latest recevied weather packets stored in our database for station/object SQ5AAG-2. If no packets are shown the sender has not sent any weather packets the latest 10 day(s).

<< 1 2 3 4 5 6 7 >>
Time Temp. Humidity Pressure Rain* Wind** Luminosity Snow
1788552064 19.44° C 85% 989.4 hPa 0.51 mm - - -
1788551764 20° C 82% 989.5 hPa 0.51 mm - - -
1788551464 21.11° C 78% 989.4 hPa 0 mm - - -
1788551163 21.11° C 76% 988.3 hPa 0 mm - - -
1788550863 21.67° C 75% 988.3 hPa 0 mm - - -
1788550563 21.67° C 74% 988.2 hPa 0 mm - - -
1788550262 21.67° C 73% 988.1 hPa 0 mm - - -
1788549962 21.67° C 72% 988.2 hPa 0 mm - - -
1788549662 21.67° C 72% 988.2 hPa 0 mm - - -
1788549362 21.67° C 72% 988.3 hPa 0 mm - - -
1788549062 21.67° C 71% 988.2 hPa 0 mm - - -
1788548761 22.22° C 70% 988.5 hPa 0 mm - - -
1788548461 22.22° C 69% 988.7 hPa 0 mm - - -
1788548160 22.22° C 68% 988.4 hPa 0 mm - - -
1788547860 22.22° C 68% 988.3 hPa 0 mm - - -
1788547560 22.22° C 68% 988.3 hPa 0 mm - - -
1788547259 21.67° C 68% 988.6 hPa 0 mm - - -
1788546959 21.67° C 69% 988.6 hPa 0 mm - - -
1788546659 21.67° C 69% 988.6 hPa 0 mm - - -
1788546358 21.67° C 70% 988.6 hPa 0 mm - - -
1788546058 21.67° C 70% 988.7 hPa 0 mm - - -
1788545758 21.11° C 71% 988.7 hPa 0 mm - - -
1788545459 21.11° C 71% 988.9 hPa 0 mm - - -
1788545157 21.11° C 71% 988.9 hPa 0 mm - - -
1788544858 21.11° C 71% 989.1 hPa 0 mm - - -

* Rain latest hour (hover to see other rain measurements)
** Current wind speed in m/s (hover to see current wind gust speed)